EW3649 Weather Reports


time (UTC)temp
F
wind
direction
speed
knots
gust
knots
rain 1hr
in
rain 24hr
in
rain mn
in
humidity
%
barometer
mb
20260503210504 81 19 0.0 4.3 0.00 0.00 0.00 42 1011.3
20260503210005 81 28 0.0 1.7 0.00 0.00 0.00 43 1011.3
20260503205503 80 28 0.0 1.7 0.00 0.00 0.00 43 1011.4
20260503205005 80 80 0.0 2.6 0.00 0.00 0.00 43 1011.4
20260503204504 80 80 0.0 2.6 0.00 0.00 0.00 44 1011.5
20260503204004 80 0 0.0 0.0 0.00 0.00 0.00 44 1011.5
20260503203503 80 0 0.0 0.0 0.00 0.00 0.00 44 1011.5
20260503202504 79 12 0.0 3.5 0.00 0.00 0.00 44 1011.7
20260503201503 79 8 0.0 1.7 0.00 0.00 0.00 45 1011.8
20260503201004 79 7 0.0 1.7 0.00 0.00 0.00 46 1011.9
20260503200504 79 103 0.0 2.6 0.00 0.00 0.00 48 1012.0
20260503200004 79 94 0.0 2.6 0.00 0.00 0.00 47 1012.0
20260503195503 79 14 0.0 4.3 0.00 0.00 0.00 47 1012.1
20260503195005 79 15 0.0 4.3 0.00 0.00 0.00 47 1012.2
20260503194503 79 23 0.0 0.9 0.00 0.00 0.00 48 1012.2
20260503194005 78 13 0.0 3.5 0.00 0.00 0.00 47 1012.3
20260503193505 78 15 0.0 3.5 0.00 0.00 0.00 48 1012.3
20260503192503 78 32 0.0 1.7 0.00 0.00 0.00 48 1012.5
20260503192005 78 41 0.0 0.9 0.00 0.00 0.00 50 1012.6
20260503191504 78 0 0.0 0.0 0.00 0.00 0.00 50 1012.6
20260503191003 78 81 0.0 1.7 0.00 0.00 0.00 50 1012.7
20260503185504 76 0 0.0 0.0 0.00 0.00 0.00 53 1012.8
20260503185004 76 0 0.0 0.0 0.00 0.00 0.00 53 1012.9
20260503184503 76 0 0.0 0.0 0.00 0.00 0.00 53 1012.9
20260503184005 76 0 0.0 0.0 0.00 0.00 0.00 53 1013.0
20260503183503 75 0 0.0 0.0 0.00 0.00 0.00 54 1013.1
20260503182503 74 246 0.0 2.6 0.00 0.00 0.00 52 1013.1
20260503182006 74 0 0.0 0.0 0.00 0.00 0.00 54 1013.1
20260503181505 74 17 0.0 1.7 0.00 0.00 0.00 53 1013.2
20260503181005 74 17 0.0 2.6 0.00 0.00 0.00 52 1013.2
20260503180503 74 17 0.0 2.6 0.00 0.00 0.00 52 1013.3
20260503180005 74 68 0.0 1.7 0.00 0.00 0.00 53 1013.2
20260503175503 74 67 0.0 1.7 0.00 0.00 0.00 53 1013.3
20260503175005 74 68 0.0 1.7 0.00 0.00 0.00 54 1013.4
20260503174505 73 68 0.0 1.7 0.00 0.00 0.00 55 1013.4
20260503174005 73 0 0.0 0.0 0.00 0.00 0.00 55 1013.3
20260503173504 73 19 0.0 0.9 0.00 0.00 0.00 58 1013.3
20260503173005 73 19 0.0 2.6 0.00 0.00 0.00 57 1013.5
20260503172504 73 20 0.0 2.6 0.00 0.00 0.00 58 1013.5
20260503172005 72 17 0.0 0.9 0.00 0.00 0.00 58 1013.5
20260503170503 72 17 0.0 2.6 0.00 0.00 0.00 59 1013.6
20260503151004 60 0 0.0 0.0 0.00 0.00 0.00 82 1013.9
20260503150504 59 0 0.0 0.0 0.00 0.00 0.00 83 1013.8
20260503131005 51 0 0.0 0.0 0.00 0.00 0.00 90 1013.7
20260503130505 51 0 0.0 0.0 0.00 0.00 0.00 90 1013.6
20260503110504 52 0 0.0 0.0 0.00 0.00 0.00 87 1013.9
20260503090503 55 0 0.0 0.0 0.00 0.00 0.00 79 1014.1
20260503081503 57 0 0.0 0.0 0.00 0.00 0.00 76 1014.2
20260503081004 57 0 0.0 0.0 0.00 0.00 0.00 76 1014.2
20260503080503 57 0 0.0 0.0 0.00 0.00 0.00 75 1014.2
20260503072506 58 0 0.0 0.0 0.00 0.00 0.00 71 1014.1
20260503071505 59 0 0.0 0.0 0.00 0.00 0.00 70 1014.1
20260503071007 60 0 0.0 0.0 0.00 0.00 0.00 69 1014.2
20260503070505 60 0 0.0 0.0 0.00 0.00 0.00 69 1014.2
20260503055006 62 0 0.0 0.0 0.00 0.00 0.00 63 1013.8
20260503054505 62 0 0.0 0.0 0.00 0.00 0.00 64 1013.9
20260503054006 62 0 0.0 0.0 0.00 0.00 0.00 63 1013.8
20260503053505 63 0 0.0 0.0 0.00 0.00 0.00 64 1013.8
20260503053007 63 0 0.0 0.0 0.00 0.00 0.00 63 1013.8
20260503052504 64 0 0.0 0.0 0.00 0.00 0.00 62 1013.8
20260503052006 64 0 0.0 0.0 0.00 0.00 0.00 61 1013.7
20260503051505 64 0 0.0 0.0 0.00 0.00 0.00 61 1013.7
20260503051006 64 0 0.0 0.0 0.00 0.00 0.00 61 1013.7
20260503050505 64 0 0.0 0.0 0.00 0.00 0.00 64 1013.6
20260503050006 65 0 0.0 0.0 0.00 0.00 0.00 62 1013.6
20260503045504 65 0 0.0 0.0 0.00 0.00 0.00 63 1013.6
20260503045006 65 0 0.0 0.0 0.00 0.00 0.00 64 1013.6
20260503044505 65 0 0.0 0.0 0.00 0.00 0.00 65 1013.5
20260503044006 65 0 0.0 0.0 0.00 0.00 0.00 65 1013.6
20260503043507 65 0 0.0 0.0 0.00 0.00 0.00 65 1013.5
20260503043006 66 0 0.0 0.0 0.00 0.00 0.00 65 1013.5
20260503042504 66 0 0.0 0.0 0.00 0.00 0.00 64 1013.5
20260503042005 66 0 0.0 0.0 0.00 0.00 0.00 65 1013.4
20260503041505 66 0 0.0 0.0 0.00 0.00 0.00 64 1013.4
20260503041006 66 0 0.0 0.0 0.00 0.00 0.00 64 1013.3
20260503040005 67 0 0.0 0.0 0.00 0.00 0.00 63 1013.2
20260503035505 67 0 0.0 0.0 0.00 0.00 0.00 62 1013.0
20260503035006 68 0 0.0 0.0 0.00 0.00 0.00 61 1012.9
20260503034504 68 0 0.0 0.0 0.00 0.00 0.00 60 1012.9
20260503034006 68 0 0.0 0.0 0.00 0.00 0.00 59 1012.9
20260503033506 69 0 0.0 0.0 0.00 0.00 0.00 59 1012.8
20260503033005 69 13 0.0 0.9 0.00 0.00 0.00 58 1012.7
20260503032504 69 13 0.0 0.9 0.00 0.00 0.00 58 1012.7
20260503032005 69 13 0.0 0.9 0.00 0.00 0.00 57 1012.6
20260503031505 70 16 0.0 0.9 0.00 0.00 0.00 57 1012.6
20260503030505 70 17 0.0 1.7 0.00 0.00 0.00 57 1012.4
20260503030005 70 0 0.0 0.0 0.00 0.00 0.00 57 1012.4
20260503025505 71 15 0.0 1.7 0.00 0.00 0.00 57 1012.3
20260503024505 71 11 0.0 1.7 0.00 0.00 0.00 57 1012.2
20260503024005 72 11 0.0 1.7 0.00 0.00 0.00 56 1012.2
20260503023505 72 17 0.0 2.6 0.00 0.00 0.00 56 1012.2
20260503023005 72 17 0.0 2.6 0.00 0.00 0.00 56 1012.2
20260503022504 72 13 0.0 3.5 0.00 0.00 0.00 55 1012.1
20260503022005 72 16 0.0 3.5 0.00 0.00 0.00 55 1012.1
20260503021504 73 18 0.0 0.9 0.00 0.00 0.00 55 1012.1
20260503021006 73 0 0.0 0.0 0.00 0.00 0.00 54 1012.1
20260503020005 73 17 0.0 1.7 0.00 0.00 0.00 53 1012.1
20260503015504 73 18 0.0 1.7 0.00 0.00 0.00 53 1012.2
20260503015006 73 20 0.0 5.2 0.00 0.00 0.00 53 1012.2
20260503014506 73 19 0.0 7.0 0.00 0.00 0.00 53 1012.2
20260503014006 73 15 0.0 7.0 0.00 0.00 0.00 53 1012.2
20260503013505 73 11 0.0 1.7 0.00 0.00 0.00 53 1012.2
20260503013005 73 5 0.0 1.7 0.00 0.00 0.00 53 1012.2
20260503012006 73 344 0.0 3.5 0.00 0.00 0.00 53 1012.3
20260503011505 74 310 0.0 2.6 0.00 0.00 0.00 52 1012.3
20260503011005 74 18 0.0 3.5 0.00 0.00 0.00 53 1012.3
20260503010505 74 12 0.0 4.3 0.00 0.00 0.00 52 1012.4
20260503005504 74 12 0.0 3.5 0.00 0.00 0.00 52 1012.3
20260503005006 74 10 0.0 3.5 0.00 0.00 0.00 51 1012.3
20260503004005 74 6 0.0 2.6 0.00 0.00 0.00 51 1012.4
20260503003505 74 5 0.0 2.6 0.00 0.00 0.00 51 1012.4
20260503003004 74 10 0.0 0.9 0.00 0.00 0.00 51 1012.4
20260503002005 74 8 0.0 2.6 0.00 0.00 0.00 50 1012.4
20260503001506 74 14 0.0 2.6 0.00 0.00 0.00 51 1012.4
20260503001006 75 20 0.0 3.5 0.00 0.00 0.00 50 1012.3
20260503000005 75 20 0.0 0.9 0.00 0.00 0.00 51 1012.4
20260502235505 75 17 0.0 4.3 0.00 0.00 0.00 50 1012.5
20260502235005 75 20 0.0 4.3 0.00 0.00 0.00 50 1012.6
20260502234005 75 35 0.0 2.6 0.00 0.00 0.00 50 1012.7
20260502233505 75 9 0.0 5.2 0.00 0.00 0.00 51 1012.8
20260502232504 75 21 0.0 4.3 0.00 0.00 0.00 52 1013.0
20260502232007 75 6 0.0 2.6 0.00 0.00 0.00 52 1013.1
20260502231504 75 2 0.0 4.3 0.00 0.00 0.00 52 1013.2
20260502231005 75 3 0.0 4.3 0.00 0.00 0.00 52 1013.3
20260502230504 75 9 0.0 4.3 0.00 0.00 0.00 52 1013.3
20260502225505 75 39 0.0 2.6 0.00 0.00 0.00 53 1013.4
20260502225005 75 39 0.0 2.6 0.00 0.00 0.00 55 1013.4
20260502224005 75 0 0.0 0.0 0.00 0.00 0.00 58 1013.6
20260502223504 74 27 0.0 4.3 0.00 0.00 0.00 56 1013.6
20260502222505 74 15 0.0 1.7 0.00 0.00 0.00 55 1013.7
20260502221504 74 21 0.0 5.2 0.00 0.00 0.00 55 1013.9
20260502221006 75 18 0.0 3.5 0.00 0.00 0.00 55 1013.9
20260502220504 75 34 0.0 1.7 0.00 0.00 0.00 56 1014.0
20260502220005 75 24 0.0 2.6 0.00 0.00 0.00 56 1013.9
20260502215506 75 23 0.0 2.6 0.00 0.00 0.00 55 1014.0
20260502214505 75 51 0.0 5.2 0.00 0.00 0.00 56 1014.1
20260502214005 74 17 0.0 3.5 0.00 0.00 0.00 55 1014.2
20260502213504 74 16 0.0 3.5 0.00 0.00 0.00 56 1014.2
20260502213006 74 15 0.0 3.5 0.00 0.00 0.00 56 1014.2
20260502212506 74 0 0.0 0.0 0.00 0.00 0.00 57 1014.2
20260502212005 74 20 0.0 0.9 0.00 0.00 0.00 56 1014.4
20260502211005 73 17 0.0 1.7 0.00 0.00 0.00 56 1014.4